Time,TemperatureF,DewpointF,PressureIn,WindDirection,WindDirectionDegrees,WindSpeedMPH,WindSpeedGustMPH,Humidity,HourlyPrecipIn,Conditions,Clouds,dailyrainin,SoftwareType,DateUTC
2013-07-26 00:22:00,68.0,58.0,-100.00,NNE,25,1.0,5.0,71,-99.99,,,-99.99,,2013-07-26 00:22:00,
2013-07-26 00:43:00,69.0,44.0,-100.00,SE,136,5.0,13.0,41,-99.99,,,-99.99,,2013-07-26 00:43:00,
2013-07-26 00:52:00,69.0,44.0,-100.00,SE,136,5.0,13.0,41,-99.99,,,-99.99,,2013-07-26 00:52:00,
2013-07-26 01:11:00,69.0,45.0,-100.00,NNW,333,4.0,9.0,42,-99.99,,,-99.99,,2013-07-26 01:11:00,
2013-07-26 01:22:00,70.0,45.0,-100.00,ESE,112,6.0,13.0,40,-99.99,,,-99.99,,2013-07-26 01:22:00,
2013-07-26 01:32:00,70.0,45.0,-100.00,ESE,112,6.0,13.0,40,-99.99,,,-99.99,,2013-07-26 01:32:00,
2013-07-26 01:43:00,70.0,43.0,-100.00,ENE,62,6.0,12.0,38,-99.99,,,-99.99,,2013-07-26 01:43:00,
2013-07-26 02:02:00,71.0,45.0,-100.00,NE,48,4.0,8.0,39,-99.99,,,-99.99,,2013-07-26 02:02:00,
2013-07-26 02:11:00,66.0,52.0,-100.00,West,260,3.0,5.0,61,-99.99,,,-99.99,,2013-07-26 02:11:00,
2013-07-26 02:21:00,66.0,52.0,-100.00,West,260,3.0,5.0,61,-99.99,,,-99.99,,2013-07-26 02:21:00,
2013-07-26 02:42:00,67.0,53.0,-100.00,East,96,1.0,3.0,60,-99.99,,,-99.99,,2013-07-26 02:42:00,
2013-07-26 02:52:00,66.0,53.0,-100.00,North,-999,0.0,0.0,64,-99.99,,,-99.99,,2013-07-26 02:52:00,
2013-07-26 03:02:00,66.0,53.0,-100.00,North,-999,0.0,0.0,64,-99.99,,,-99.99,,2013-07-26 03:02:00,
2013-07-26 03:12:00,66.0,53.0,-100.00,North,-999,0.0,0.0,64,-99.99,,,-99.99,,2013-07-26 03:12:00,
2013-07-26 03:22:00,66.0,53.0,-100.00,North,-999,0.0,0.0,64,-99.99,,,-99.99,,2013-07-26 03:22:00,
2013-07-26 03:43:00,66.0,53.0,-100.00,North,-999,0.0,0.0,64,-99.99,,,-99.99,,2013-07-26 03:43:00,
2013-07-26 04:02:00,63.0,53.0,-100.00,North,-999,-999.0,-999.0,71,-99.99,,,-99.99,,2013-07-26 04:02:00,
2013-07-26 04:22:00,62.0,52.0,-100.00,SE,126,2.0,3.0,71,-99.99,,,-99.99,,2013-07-26 04:22:00,
2013-07-26 04:32:00,62.0,52.0,-100.00,SE,124,3.0,4.0,70,-99.99,,,-99.99,,2013-07-26 04:32:00,
2013-07-26 04:42:00,62.0,52.0,-100.00,SE,124,3.0,4.0,70,-99.99,,,-99.99,,2013-07-26 04:42:00,
2013-07-26 04:53:00,62.0,51.0,-100.00,SE,126,3.0,3.0,68,-99.99,,,-99.99,,2013-07-26 04:53:00,
2013-07-26 05:22:00,62.0,52.0,-100.00,ESE,123,3.0,4.0,70,-99.99,,,-99.99,,2013-07-26 05:22:00,
2013-07-26 05:32:00,62.0,52.0,-100.00,SE,130,3.0,4.0,69,-99.99,,,-99.99,,2013-07-26 05:32:00,
2013-07-26 05:43:00,62.0,51.0,-100.00,SE,137,2.0,3.0,68,-99.99,,,-99.99,,2013-07-26 05:43:00,
2013-07-26 05:52:00,62.0,51.0,-100.00,SE,137,2.0,3.0,68,-99.99,,,-99.99,,2013-07-26 05:52:00,
2013-07-26 06:02:00,62.0,51.0,-100.00,SE,137,2.0,3.0,68,-99.99,,,-99.99,,2013-07-26 06:02:00,
2013-07-26 06:11:00,62.0,52.0,-100.00,North,-999,0.0,0.0,71,-99.99,,,-99.99,,2013-07-26 06:11:00,
2013-07-26 06:22:00,62.0,52.0,-100.00,North,-999,0.0,0.0,71,-99.99,,,-99.99,,2013-07-26 06:22:00,
2013-07-26 06:33:00,62.0,52.0,-100.00,North,-999,0.0,0.0,69,-99.99,,,-99.99,,2013-07-26 06:33:00,
2013-07-26 06:43:00,62.0,52.0,-100.00,North,-999,0.0,0.0,70,-99.99,,,-99.99,,2013-07-26 06:43:00,
2013-07-26 07:02:00,62.0,52.0,-100.00,North,-999,0.0,0.0,70,-99.99,,,-99.99,,2013-07-26 07:02:00,
2013-07-26 07:12:00,62.0,53.0,-100.00,North,-999,0.0,0.0,72,-99.99,,,-99.99,,2013-07-26 07:12:00,
2013-07-26 07:22:00,62.0,53.0,-100.00,North,-999,0.0,0.0,72,-99.99,,,-99.99,,2013-07-26 07:22:00,
2013-07-26 07:32:00,62.0,53.0,-100.00,SE,133,2.0,2.0,72,-99.99,,,-99.99,,2013-07-26 07:32:00,
2013-07-26 07:43:00,61.0,52.0,-100.00,SE,133,3.0,3.0,71,-99.99,,,-99.99,,2013-07-26 07:43:00,
2013-07-26 07:52:00,61.0,52.0,-100.00,SE,133,3.0,3.0,73,-99.99,,,-99.99,,2013-07-26 07:52:00,
2013-07-26 08:02:00,61.0,53.0,-100.00,ESE,113,3.0,3.0,75,-99.99,,,-99.99,,2013-07-26 08:02:00,
2013-07-26 08:12:00,61.0,53.0,-100.00,ESE,113,3.0,3.0,75,-99.99,,,-99.99,,2013-07-26 08:12:00,
2013-07-26 08:22:00,61.0,53.0,-100.00,ESE,113,3.0,3.0,75,-99.99,,,-99.99,,2013-07-26 08:22:00,
2013-07-26 08:32:00,59.0,54.0,-100.00,SSE,148,2.0,3.0,83,-99.99,,,-99.99,,2013-07-26 08:32:00,
2013-07-26 08:44:00,59.0,54.0,-100.00,SSE,148,2.0,3.0,83,-99.99,,,-99.99,,2013-07-26 08:44:00,
2013-07-26 09:02:00,59.0,53.0,-100.00,SE,130,3.0,4.0,80,-99.99,,,-99.99,,2013-07-26 09:02:00,
2013-07-26 09:12:00,59.0,52.0,-100.00,North,-999,0.0,0.0,79,-99.99,,,-99.99,,2013-07-26 09:12:00,
2013-07-26 09:22:00,59.0,52.0,-100.00,North,-999,0.0,0.0,79,-99.99,,,-99.99,,2013-07-26 09:22:00,
2013-07-26 09:32:00,59.0,52.0,-100.00,North,-999,0.0,0.0,77,-99.99,,,-99.99,,2013-07-26 09:32:00,
2013-07-26 09:43:00,59.0,51.0,-100.00,North,-999,0.0,0.0,74,-99.99,,,-99.99,,2013-07-26 09:43:00,
2013-07-26 09:52:00,59.0,51.0,-100.00,North,-999,0.0,0.0,74,-99.99,,,-99.99,,2013-07-26 09:52:00,
2013-07-26 10:02:00,59.0,49.0,-100.00,ESE,117,3.0,3.0,70,-99.99,,,-99.99,,2013-07-26 10:02:00,
2013-07-26 10:22:00,59.0,52.0,-100.00,SE,137,2.0,3.0,77,-99.99,,,-99.99,,2013-07-26 10:22:00,
2013-07-26 10:32:00,59.0,52.0,-100.00,SE,137,2.0,3.0,77,-99.99,,,-99.99,,2013-07-26 10:32:00,
2013-07-26 10:42:00,59.0,52.0,-100.00,SE,138,3.0,3.0,78,-99.99,,,-99.99,,2013-07-26 10:42:00,
2013-07-26 10:52:00,59.0,52.0,-100.00,ESE,123,3.0,4.0,77,-99.99,,,-99.99,,2013-07-26 10:52:00,
2013-07-26 11:02:00,59.0,52.0,-100.00,ESE,123,3.0,4.0,77,-99.99,,,-99.99,,2013-07-26 11:02:00,
2013-07-26 11:11:00,59.0,52.0,-100.00,SE,136,3.0,3.0,79,-99.99,,,-99.99,,2013-07-26 11:11:00,
2013-07-26 11:22:00,58.0,51.0,-100.00,ESE,109,2.0,3.0,77,-99.99,,,-99.99,,2013-07-26 11:22:00,
2013-07-26 11:32:00,59.0,51.0,-100.00,ESE,114,3.0,4.0,75,-99.99,,,-99.99,,2013-07-26 11:32:00,
2013-07-26 11:43:00,59.0,51.0,-100.00,ESE,114,3.0,4.0,75,-99.99,,,-99.99,,2013-07-26 11:43:00,
2013-07-26 11:52:00,59.0,50.0,-100.00,SE,130,3.0,4.0,72,-99.99,,,-99.99,,2013-07-26 11:52:00,
2013-07-26 12:01:00,59.0,50.0,-100.00,ESE,120,2.0,3.0,73,-99.99,,,-99.99,,2013-07-26 12:01:00,
2013-07-26 12:12:00,59.0,50.0,-100.00,ESE,120,2.0,3.0,73,-99.99,,,-99.99,,2013-07-26 12:12:00,
2013-07-26 12:22:00,59.0,50.0,-100.00,ESE,123,3.0,4.0,72,-99.99,,,-99.99,,2013-07-26 12:22:00,
2013-07-26 12:33:00,58.0,49.0,-100.00,SE,126,3.0,4.0,71,-99.99,,,-99.99,,2013-07-26 12:33:00,
2013-07-26 12:43:00,58.0,49.0,-100.00,SE,126,3.0,4.0,71,-99.99,,,-99.99,,2013-07-26 12:43:00,
2013-07-26 12:53:00,58.0,48.0,-100.00,ESE,116,3.0,4.0,70,-99.99,,,-99.99,,2013-07-26 12:53:00,
2013-07-26 13:12:00,58.0,50.0,-100.00,SE,130,3.0,4.0,75,-99.99,,,-99.99,,2013-07-26 13:12:00,
2013-07-26 13:22:00,58.0,50.0,-100.00,SE,130,3.0,4.0,75,-99.99,,,-99.99,,2013-07-26 13:22:00,
2013-07-26 13:43:00,58.0,50.0,-100.00,SE,133,3.0,4.0,74,-99.99,,,-99.99,,2013-07-26 13:43:00,
2013-07-26 13:53:00,58.0,50.0,-100.00,SE,133,3.0,4.0,74,-99.99,,,-99.99,,2013-07-26 13:53:00,
2013-07-26 14:02:00,58.0,50.0,-100.00,SE,131,2.0,3.0,76,-99.99,,,-99.99,,2013-07-26 14:02:00,
2013-07-26 14:11:00,58.0,50.0,-100.00,SE,131,2.0,3.0,76,-99.99,,,-99.99,,2013-07-26 14:11:00,
2013-07-26 14:22:00,58.0,51.0,-100.00,ESE,121,3.0,4.0,78,-99.99,,,-99.99,,2013-07-26 14:22:00,
2013-07-26 14:32:00,58.0,51.0,-100.00,ESE,121,3.0,4.0,78,-99.99,,,-99.99,,2013-07-26 14:32:00,
2013-07-26 14:43:00,58.0,50.0,-100.00,East,100,2.0,3.0,74,-99.99,,,-99.99,,2013-07-26 14:43:00,
2013-07-26 14:53:00,58.0,50.0,-100.00,East,100,2.0,3.0,74,-99.99,,,-99.99,,2013-07-26 14:53:00,
2013-07-26 15:12:00,60.0,51.0,-100.00,North,-999,0.0,0.0,71,-99.99,,,-99.99,,2013-07-26 15:12:00,
2013-07-26 15:22:00,62.0,52.0,-100.00,North,-999,0.0,0.0,71,-99.99,,,-99.99,,2013-07-26 15:22:00,
2013-07-26 15:32:00,62.0,52.0,-100.00,North,-999,0.0,0.0,71,-99.99,,,-99.99,,2013-07-26 15:32:00,
2013-07-26 15:43:00,64.0,53.0,-100.00,North,-999,0.0,0.0,68,-99.99,,,-99.99,,2013-07-26 15:43:00,
2013-07-26 15:53:00,64.0,54.0,-100.00,North,-999,0.0,0.0,70,-99.99,,,-99.99,,2013-07-26 15:53:00,
2013-07-26 16:02:00,64.0,54.0,-100.00,North,-999,0.0,0.0,70,-99.99,,,-99.99,,2013-07-26 16:02:00,
2013-07-26 16:22:00,63.0,54.0,-100.00,North,-999,0.0,0.0,73,-99.99,,,-99.99,,2013-07-26 16:22:00,
2013-07-26 16:43:00,65.0,56.0,-100.00,North,-999,0.0,0.0,72,-99.99,,,-99.99,,2013-07-26 16:43:00,
2013-07-26 16:53:00,66.0,56.0,-100.00,North,-999,0.0,0.0,71,-99.99,,,-99.99,,2013-07-26 16:53:00,
2013-07-26 17:02:00,66.0,56.0,-100.00,North,-999,0.0,0.0,71,-99.99,,,-99.99,,2013-07-26 17:02:00,
2013-07-26 17:12:00,66.0,56.0,-100.00,North,-999,0.0,0.0,71,-99.99,,,-99.99,,2013-07-26 17:12:00,
2013-07-26 17:43:00,67.0,57.0,-100.00,North,-999,-999.0,-999.0,70,-99.99,,,-99.99,,2013-07-26 17:43:00,
2013-07-26 17:53:00,67.0,57.0,-100.00,North,-999,0.0,0.0,70,-99.99,,,-99.99,,2013-07-26 17:53:00,
2013-07-26 18:02:00,67.0,57.0,-100.00,North,-999,0.0,0.0,70,-99.99,,,-99.99,,2013-07-26 18:02:00,
2013-07-26 18:12:00,67.0,57.0,-100.00,North,-999,0.0,0.0,70,-99.99,,,-99.99,,2013-07-26 18:12:00,
2013-07-26 18:22:00,68.0,57.0,-100.00,North,-999,0.0,0.0,68,-99.99,,,-99.99,,2013-07-26 18:22:00,
2013-07-26 18:32:00,68.0,57.0,-100.00,North,-999,0.0,0.0,69,-99.99,,,-99.99,,2013-07-26 18:32:00,
2013-07-26 18:43:00,69.0,57.0,-100.00,North,-999,0.0,0.0,65,-99.99,,,-99.99,,2013-07-26 18:43:00,
2013-07-26 18:52:00,69.0,57.0,-100.00,North,-999,0.0,0.0,65,-99.99,,,-99.99,,2013-07-26 18:52:00,
2013-07-26 19:02:00,69.0,57.0,-100.00,North,-999,0.0,0.0,65,-99.99,,,-99.99,,2013-07-26 19:02:00,
2013-07-26 19:11:00,69.0,57.0,-100.00,North,-999,0.0,0.0,65,-99.99,,,-99.99,,2013-07-26 19:11:00,
2013-07-26 19:43:00,73.0,55.0,-100.00,North,-999,0.0,0.0,53,-99.99,,,-99.99,,2013-07-26 19:43:00,
2013-07-26 19:52:00,73.0,55.0,-100.00,North,-999,0.0,0.0,53,-99.99,,,-99.99,,2013-07-26 19:52:00,
2013-07-26 20:02:00,73.0,55.0,-100.00,North,-999,0.0,0.0,53,-99.99,,,-99.99,,2013-07-26 20:02:00,
2013-07-26 20:11:00,75.0,52.0,-100.00,North,-999,0.0,0.0,44,-99.99,,,-99.99,,2013-07-26 20:11:00,
2013-07-26 20:22:00,75.0,52.0,-100.00,North,-999,0.0,0.0,44,-99.99,,,-99.99,,2013-07-26 20:22:00,
2013-07-26 20:32:00,75.0,52.0,-100.00,North,-999,0.0,0.0,44,-99.99,,,-99.99,,2013-07-26 20:32:00,
2013-07-26 20:43:00,77.0,48.0,-100.00,North,-999,0.0,0.0,36,-99.99,,,-99.99,,2013-07-26 20:43:00,
2013-07-26 20:53:00,77.0,48.0,-100.00,North,-999,0.0,0.0,36,-99.99,,,-99.99,,2013-07-26 20:53:00,
2013-07-26 22:32:00,79.0,50.0,-100.00,SSW,199,3.0,6.0,36,-99.99,,,-99.99,,2013-07-26 22:32:00,
2013-07-26 22:43:00,80.0,49.0,-100.00,NNW,343,2.0,5.0,34,-99.99,,,-99.99,,2013-07-26 22:43:00,
2013-07-26 22:53:00,80.0,51.0,-100.00,West,275,3.0,5.0,36,-99.99,,,-99.99,,2013-07-26 22:53:00,
2013-07-26 23:02:00,81.0,49.0,-100.00,South,191,3.0,5.0,33,-99.99,,,-99.99,,2013-07-26 23:02:00,
2013-07-26 23:12:00,81.0,49.0,-100.00,South,191,3.0,5.0,33,-99.99,,,-99.99,,2013-07-26 23:12:00,
2013-07-26 23:22:00,79.0,49.0,-100.00,North,360,3.0,5.0,35,-99.99,,,-99.99,,2013-07-26 23:22:00,
2013-07-26 23:32:00,79.0,55.0,-100.00,WNW,284,4.0,5.0,44,-99.99,,,-99.99,,2013-07-26 23:32:00,
2013-07-26 23:43:00,79.0,55.0,-100.00,WNW,284,4.0,5.0,44,-99.99,,,-99.99,,2013-07-26 23:43:00,
2013-07-26 23:52:00,78.0,56.0,-100.00,WNW,289,5.0,7.0,47,-99.99,,,-99.99,,2013-07-26 23:52:00,